This demonstration page uses our WeatherBlox Daily Observations layout. Learn more.

Left ArrowRight Arrow

Hourly Observations for October 10, 2021

Temp ( °F °C ) Dew Point ( °F °C ) Humidity (%) Winds ( mph kmh ) Pressure ( in mb ) Visibility ( mi km ) Precip ( " mm )
12:53 am 00:53 Clear 75 23.9 48 8.9 39 39 SE 15 24 29.63 1004 10 16 N/A
1:53 am 01:53 Clear 73 22.8 49 9.4 43 43 SE 15 24 29.62 1003 10 16 N/A
2:53 am 02:53 Clear 70 21.1 49 9.4 47 47 SE 9 15 29.61 1003 10 16 N/A
3:53 am 03:53 Clear 68 20 49 9.4 51 51 SSE 6 9 29.61 1003 10 16 N/A
4:53 am 04:53 Clear 68 20 48 8.9 49 49 SE 14 22 29.59 1002 10 16 N/A
5:53 am 05:53 Clear 63 17.2 47 8.3 56 56 SSE 7 11 29.60 1002 10 16 N/A
6:53 am 06:53 Clear 63 17.2 47 8.3 56 56 SSE 7 11 29.62 1003 10 16 N/A
7:53 am 07:53 Sunny 61 16.1 47 8.3 60 60 SE 8 13 29.63 1003 10 16 N/A
8:53 am 08:53 Sunny 65 18.3 48 8.9 54 54 SE 6 9 29.63 1004 10 16 N/A
9:53 am 09:53 Sunny 72 22.2 47 8.3 41 41 SSE 5 7 29.64 1004 10 16 N/A
10:53 am 10:53 undefined 82 27.8 42 5.6 24 24 SW 9 15 29.62 1003 10 16 N/A
11:53 am 11:53 Sunny 86 30 44 6.7 23 23 WSW 17 28 29.60 1003 10 16 N/A
12:53 pm 12:53 Sunny 85 29.4 45 7.2 25 25 W 30 48 29.60 1003 10 16 N/A
1:53 pm 13:53 Sunny 85 29.4 37 2.8 18 18 W 32 52 29.61 1003 10 16 N/A
2:53 pm 14:53 Partly Cloudy 85 29.4 27 -2.8 12 12 W 36 57 29.62 1003 8 13 N/A
3:53 pm 15:53 Sunny 83 28.3 19 -7.2 9 9 W 28 44 29.65 1004 10 16 N/A
4:53 pm 16:53 Sunny 83 28.3 19 -7.2 9 9 WNW 25 41 29.66 1005 10 16 N/A
5:35 pm 17:35 Sunny 79 26.1 36 2.2 21 21 N 20 31 29.65 1004 10 16 N/A
5:53 pm 17:53 Sunny 79 26.1 36 2.2 21 21 N 18 30 29.71 1006 10 16 N/A
6:53 pm 18:53 Sunny 77 25 33 0.6 20 20 NW 15 24 29.73 1007 10 16 N/A
7:53 pm 19:53 Clear 73 22.8 36 2.2 26 26 N 18 30 29.78 1009 10 16 N/A
8:53 pm 20:53 Clear 67 19.4 39 3.9 36 36 N 14 22 29.81 1010 10 16 N/A
9:53 pm 21:53 Clear 63 17.2 38 3.3 40 40 N 8 13 29.84 1010 10 16 N/A
10:53 pm 22:53 Clear 59 15 39 3.9 48 48 N 7 11 29.84 1010 10 16 N/A
11:53 pm 23:53 Clear 56 13.3 39 3.9 53 53 N 5 7 29.85 1011 10 16 N/A

Powered by AerisWeather